This is the latest recevied weather packets stored in our database for station/object AC8JV. If no packets are shown the sender has not sent any weather packets the latest 10 day(s).
| Time | Temp. | Humidity | Pressure | Rain* | Wind** | Luminosity | Snow |
|---|---|---|---|---|---|---|---|
| 1777923024 | 23.89° C | 34% | 1001.2 hPa | 0 mm | - | - | - |
| 1777922409 | 23.89° C | 33% | 1001.1 hPa | 0 mm | - | - | - |
| 1777921825 | 23.89° C | 31% | 1001.3 hPa | 0 mm | - | - | - |
| 1777921202 | 23.89° C | 28% | 1001.2 hPa | 0 mm | - | - | - |
| 1777920641 | 23.89° C | 29% | 1001.1 hPa | 0 mm | - | - | - |
| 1777920005 | 23.89° C | 27% | 1001 hPa | 0 mm | - | - | - |
| 1777919405 | 23.89° C | 28% | 1001.4 hPa | 0 mm | - | - | - |
| 1777918810 | 23.89° C | 26% | 1001.4 hPa | 0 mm | - | - | - |
| 1777918204 | 23.89° C | 26% | 1001.4 hPa | 0 mm | - | - | - |
| 1777917614 | 23.33° C | 27% | 1001.4 hPa | 0 mm | - | - | - |
| 1777917005 | 23.33° C | 26% | 1001.5 hPa | 0 mm | - | - | - |
| 1777916402 | 23.33° C | 28% | 1001.7 hPa | 0 mm | - | - | - |
| 1777915818 | 23.89° C | 25% | 1001.6 hPa | 0 mm | - | - | - |
| 1777915228 | 23.33° C | 27% | 1002 hPa | 0 mm | - | - | - |
| 1777914619 | 23.33° C | 29% | 1002.1 hPa | 0 mm | - | - | - |
| 1777914002 | 22.78° C | 27% | 1002.1 hPa | 0 mm | - | - | - |
| 1777913469 | 22.78° C | 28% | 1002.2 hPa | 0 mm | - | - | - |
| 1777912812 | 22.78° C | 28% | 1002.4 hPa | 0 mm | - | - | - |
| 1777912201 | 22.78° C | 30% | 1002.7 hPa | 0 mm | - | - | - |
| 1777911610 | 22.22° C | 32% | 1002.9 hPa | 0 mm | - | - | - |
| 1777911014 | 21.67° C | 33% | 1003 hPa | 0 mm | - | - | - |
| 1777910411 | 21.67° C | 37% | 1003 hPa | 0 mm | - | - | - |
| 1777909809 | 21.11° C | 46% | 1003.1 hPa | 0 mm | - | - | - |
| 1777909235 | 20.56° C | 46% | 1003.4 hPa | 0 mm | - | - | - |
| 1777908623 | 20° C | 49% | 1003.4 hPa | 0 mm | - | - | - |
* Rain latest hour (hover to see other rain measurements)
** Current wind speed in m/s (hover to see current wind gust speed)